Flag for Norway Weather past 2 weeks in Hommelvik, Norway

Now
53 °F

Overcast.


Feels Like: 51 °F
Forecast: 51 / 64 °F
Wind: 7 mph from Southwest

Location: Trondheim / Vaernes

Current Time: Aug 3, 2015 at 1:36:56 AM

Latest Report: Aug 3, 2015 at 1:00 AM


Visibility: 28 mi

Pressure: 30.12 "Hg

Humidity: 83%

Dew point: 48 °F

Location of HommelvikLocation

Historic Weather in Hommelvik — Graph

°F

Hommelvik temperature yesterday

Maximum temperature yesterday: 59 °F (at 2:00 PM)
Minimum temperature yesterday: 45 °F (at 4:00 AM)
Average temperature yesterday: 54 °F

Past Weeks' High & Low Weather Summary

 TemperatureHumidityPressure
High67 °F (Jul 21, 1:00 PM)97% (Jul 19, 5:00 AM)30.07 "Hg (Jul 19, 5:00 AM)
Low44 °F (Jul 28, 5:00 AM)42% (Aug 1, 6:00 PM)29.35 "Hg (Jul 27, 3:00 AM)
Average55 °F78%29.70 "Hg
* Reported Jul 18 10:00 PM — Aug 2 10:00 PM, Hommelvik, Weather by CustomWeather, © 2015

Note: Actual official high and low records may vary slightly from our data, if they occured in-between our weather recording intervals... More about our weather records

Advertising

Hommelvik weather history for previous 24 hours

 ConditionsComfort  
Time TempWeatherWind HumidityBarometerVisibility
10:00 PM
Sun, Aug 2
55 °FOvercast.9 mph75%30.07 "Hg31 mi
9:00 PM56 °FPassing clouds.10 mph72%30.05 "Hg28 mi
8:00 PM56 °FPartly sunny.10 mph74%30.03 "Hg19 mi
7:00 PM57 °FOvercast.12 mph74%30.01 "Hg22 mi
6:00 PM56 °FRain showers. Partly sunny.12 mph77%30.00 "Hg13 mi
5:00 PM57 °FOvercast.13 mph76%29.97 "Hg10 mi
4:00 PM57 °FOvercast.12 mph76%29.96 "Hg19 mi
3:00 PM58 °FOvercast.12 mph75%29.93 "Hg19 mi
2:00 PM59 °FScattered clouds.9 mph75%29.91 "Hg22 mi
1:00 PM58 °FPassing clouds.7 mph64%29.89 "Hg25 mi
12:00 PM58 °FPassing clouds.7 mph76%29.88 "Hg17 mi
11:00 AM56 °FSunny.7 mph76%29.87 "Hg25 mi
10:00 AM56 °FSunny.6 mph71%29.86 "Hg28 mi
9:00 AM56 °FSunny.No wind68%29.86 "Hg19 mi
8:00 AM53 °FSunny.2 mph77%29.86 "Hg25 mi
7:00 AM49 °FSunny.3 mph83%29.87 "Hg25 mi
6:00 AM45 °FSunny.3 mph91%29.87 "Hg25 mi
4:00 AM45 °FClear.3 mph89%29.88 "Hg31 mi
3:00 AM47 °FPassing clouds.3 mph84%29.88 "Hg31 mi
2:00 AM47 °FPassing clouds.5 mph86%29.88 "Hg31 mi
1:00 AM47 °FPassing clouds.5 mph84%29.89 "Hg31 mi
Weather by CustomWeather, © 2015

See weather overviewHow to use our weather pages